Key West Nas, Boca Chica Field, Airport Key West US
ICAO: KNQX
IATA: NQX
Category: Medium
Scheduled Services: No

Elevation: 6 ft
TransAlt. 18000 ft.

Airport Communications:
APP DEP:119.25
ATIS:27.72
CLNC DEL:121.2
GND:121.7
BASE OPS:33.8
PMSV METRO:34.46
TWR:126.1

KNQX Zoom In..

Runways:

(A) RW 03 length 7002 ft width 150 ft
---- / hdg 34

(B) RW 07 length 10001 ft width 200 ft
---- / hdg 75

(C) RW 13 length 7001 ft width 150 ft
---- / hdg 133

(D) RW 21 length 7002 ft width 150 ft
---- / hdg 214

(E) RW 25 length 10001 ft width 200 ft
---- / hdg 255

(F) RW 31 length 7001 ft width 150 ft
---- / hdg 313

Location; KNQX
Day. 20 / Time. 09.55 Zulu
* Altimeter: 30.07
* Temperature: 22° c. 71.6°f.
* Wind from: 020° Speed 03 kn.
Dewpoint: 19° c.
Visibility: 10 Statute Miles.
Clouds: Broken 2300 ft.
Clouds: Broken 22000 ft.

KNQX 200955Z 02003KT 10SM BKN023 BKN220 22/19 A3007 RMK AO2 T02220189


Wind From 020°
Speed 03 kn.

  YouTube Music Video
 
jpsmedia.com for Web Design  worldairports.se 2018   terms of use